Year,Month,Day,Hour,Minute,Value (Times are PST for temperature in C)
2016,08,14,00,00,19.90
2016,08,14,00,01,19.80
2016,08,14,00,02,19.80
2016,08,14,00,03,19.80
2016,08,14,00,04,19.80
2016,08,14,00,05,19.80
2016,08,14,00,06,19.80
2016,08,14,00,07,19.80
2016,08,14,00,08,19.70
2016,08,14,00,09,19.70
2016,08,14,00,10,19.70
2016,08,14,00,11,19.70
2016,08,14,00,12,19.70
2016,08,14,00,13,19.70
2016,08,14,00,14,19.60
2016,08,14,00,15,19.60
2016,08,14,00,16,19.60
2016,08,14,00,17,19.60
2016,08,14,00,18,19.60
2016,08,14,00,19,19.50
2016,08,14,00,20,19.50
2016,08,14,00,21,19.50
2016,08,14,00,22,19.50
2016,08,14,00,23,19.50
2016,08,14,00,24,19.40
2016,08,14,00,25,19.40
2016,08,14,00,26,19.40
2016,08,14,00,27,19.40
2016,08,14,00,28,19.40
2016,08,14,00,29,19.40
2016,08,14,00,30,19.30
2016,08,14,00,31,19.30
2016,08,14,00,32,19.30
2016,08,14,00,33,19.30
2016,08,14,00,34,19.30
2016,08,14,00,35,19.30
2016,08,14,00,36,19.20
2016,08,14,00,37,19.20
2016,08,14,00,38,19.20
2016,08,14,00,39,19.20
2016,08,14,00,40,19.20
2016,08,14,00,41,19.10
2016,08,14,00,42,19.10
2016,08,14,00,43,19.10
2016,08,14,00,44,19.10
2016,08,14,00,45,19.10
2016,08,14,00,46,19.10
2016,08,14,00,47,19.00
2016,08,14,00,48,19.00
2016,08,14,00,49,19.00
2016,08,14,00,50,18.90
2016,08,14,00,51,18.90
2016,08,14,00,52,18.90
2016,08,14,00,53,18.90
2016,08,14,00,54,18.90
2016,08,14,00,55,18.90
2016,08,14,00,56,18.90
2016,08,14,00,57,18.90
2016,08,14,00,58,18.90
2016,08,14,00,59,18.90
2016,08,14,01,00,18.80
2016,08,14,01,01,18.80
2016,08,14,01,02,18.80
2016,08,14,01,03,18.80
2016,08,14,01,04,18.80
2016,08,14,01,05,18.80
2016,08,14,01,06,18.80
2016,08,14,01,07,18.80
2016,08,14,01,08,18.70
2016,08,14,01,09,18.70
2016,08,14,01,10,18.70
2016,08,14,01,11,18.70
2016,08,14,01,12,18.70
2016,08,14,01,13,18.70
2016,08,14,01,14,18.60
2016,08,14,01,15,18.60
2016,08,14,01,16,18.60
2016,08,14,01,17,18.60
2016,08,14,01,18,18.60
2016,08,14,01,19,18.60
2016,08,14,01,20,18.50
2016,08,14,01,21,18.50
2016,08,14,01,22,18.50
2016,08,14,01,23,18.50
2016,08,14,01,24,18.50
2016,08,14,01,25,18.40
2016,08,14,01,26,18.40
2016,08,14,01,27,18.40
2016,08,14,01,28,18.40
2016,08,14,01,29,18.40
2016,08,14,01,30,18.40
2016,08,14,01,31,18.40
2016,08,14,01,32,18.40
2016,08,14,01,33,18.40
2016,08,14,01,34,18.30
2016,08,14,01,35,18.30
2016,08,14,01,36,18.30
2016,08,14,01,37,18.30
2016,08,14,01,38,18.30
2016,08,14,01,39,18.30
2016,08,14,01,40,18.30
2016,08,14,01,41,18.30
2016,08,14,01,42,18.30
2016,08,14,01,43,18.30
2016,08,14,01,44,18.20
2016,08,14,01,45,18.20
2016,08,14,01,46,18.20
2016,08,14,01,47,18.20
2016,08,14,01,48,18.20
2016,08,14,01,49,18.20
2016,08,14,01,50,18.20
2016,08,14,01,51,18.20
2016,08,14,01,52,18.10
2016,08,14,01,53,18.10
2016,08,14,01,54,18.10
2016,08,14,01,55,18.10
2016,08,14,01,56,18.10
2016,08,14,01,57,18.10
2016,08,14,01,58,18.10
2016,08,14,01,59,18.00
2016,08,14,02,00,18.00
2016,08,14,02,01,18.00
2016,08,14,02,02,18.00
2016,08,14,02,03,17.90
2016,08,14,02,04,17.90
2016,08,14,02,05,17.90
2016,08,14,02,06,17.90
2016,08,14,02,07,17.90
2016,08,14,02,08,17.90
2016,08,14,02,09,17.90
2016,08,14,02,10,17.90
2016,08,14,02,11,17.80
2016,08,14,02,12,17.80
2016,08,14,02,13,17.80
2016,08,14,02,14,17.80
2016,08,14,02,15,17.80
2016,08,14,02,16,17.80
2016,08,14,02,17,17.80
2016,08,14,02,18,17.80
2016,08,14,02,19,17.70
2016,08,14,02,20,17.70
2016,08,14,02,21,17.70
2016,08,14,02,22,17.70
2016,08,14,02,23,17.70
2016,08,14,02,24,17.70
2016,08,14,02,25,17.70
2016,08,14,02,26,17.70
2016,08,14,02,27,17.60
2016,08,14,02,28,17.60
2016,08,14,02,29,17.60
2016,08,14,02,30,17.60
2016,08,14,02,31,17.60
2016,08,14,02,32,17.60
2016,08,14,02,33,17.60
2016,08,14,02,34,17.60
2016,08,14,02,35,17.60
2016,08,14,02,36,17.60
2016,08,14,02,37,17.50
2016,08,14,02,38,17.50
2016,08,14,02,39,17.50
2016,08,14,02,40,17.50
2016,08,14,02,41,17.50
2016,08,14,02,42,17.50
2016,08,14,02,43,17.40
2016,08,14,02,44,17.40
2016,08,14,02,45,17.40
2016,08,14,02,46,17.40
2016,08,14,02,47,17.40
2016,08,14,02,48,17.40
2016,08,14,02,49,17.40
2016,08,14,02,50,17.40
2016,08,14,02,51,17.40
2016,08,14,02,52,17.40
2016,08,14,02,53,17.40
2016,08,14,02,54,17.30
2016,08,14,02,55,17.30
2016,08,14,02,56,17.30
2016,08,14,02,57,17.30
2016,08,14,02,58,17.30
2016,08,14,02,59,17.30
2016,08,14,03,00,17.30
2016,08,14,03,01,17.30
2016,08,14,03,02,17.30
2016,08,14,03,03,17.30
2016,08,14,03,04,17.30
2016,08,14,03,05,17.30
2016,08,14,03,06,17.30
2016,08,14,03,07,17.30
2016,08,14,03,08,17.20
2016,08,14,03,09,17.20
2016,08,14,03,10,17.20
2016,08,14,03,11,17.20
2016,08,14,03,12,17.20
2016,08,14,03,13,17.20
2016,08,14,03,14,17.20
2016,08,14,03,15,17.20
2016,08,14,03,16,17.20
2016,08,14,03,17,17.20
2016,08,14,03,18,17.10
2016,08,14,03,19,17.10
2016,08,14,03,20,17.10
2016,08,14,03,21,17.10
2016,08,14,03,22,17.10
2016,08,14,03,23,17.10
2016,08,14,03,24,17.10
2016,08,14,03,25,17.10
2016,08,14,03,26,17.10
2016,08,14,03,27,17.00
2016,08,14,03,28,17.00
2016,08,14,03,29,17.00
2016,08,14,03,30,17.00
2016,08,14,03,31,17.00
2016,08,14,03,32,16.90
2016,08,14,03,33,16.90
2016,08,14,03,34,16.90
2016,08,14,03,35,16.90
2016,08,14,03,36,16.90
2016,08,14,03,37,16.90
2016,08,14,03,38,16.90
2016,08,14,03,39,16.80
2016,08,14,03,40,16.80
2016,08,14,03,41,16.80
2016,08,14,03,42,16.80
2016,08,14,03,43,16.80
2016,08,14,03,44,16.80
2016,08,14,03,45,16.80
2016,08,14,03,46,16.80
2016,08,14,03,47,16.80
2016,08,14,03,48,16.80
2016,08,14,03,49,16.70
2016,08,14,03,50,16.70
2016,08,14,03,51,16.70
2016,08,14,03,52,16.70
2016,08,14,03,53,16.70
2016,08,14,03,54,16.70
2016,08,14,03,55,16.70
2016,08,14,03,56,16.70
2016,08,14,03,57,16.70
2016,08,14,03,58,16.70
2016,08,14,03,59,16.70
2016,08,14,04,00,16.70
2016,08,14,04,01,16.70
2016,08,14,04,02,16.70
2016,08,14,04,03,16.60
2016,08,14,04,04,16.60
2016,08,14,04,05,16.60
2016,08,14,04,06,16.60
2016,08,14,04,07,16.60
2016,08,14,04,08,16.60
2016,08,14,04,09,16.60
2016,08,14,04,10,16.60
2016,08,14,04,11,16.60
2016,08,14,04,12,16.60
2016,08,14,04,13,16.60
2016,08,14,04,14,16.60
2016,08,14,04,15,16.60
2016,08,14,04,16,16.60
2016,08,14,04,17,16.50
2016,08,14,04,18,16.50
2016,08,14,04,19,16.50
2016,08,14,04,20,16.50
2016,08,14,04,21,16.50
2016,08,14,04,22,16.50
2016,08,14,04,23,16.50
2016,08,14,04,24,16.50
2016,08,14,04,25,16.50
2016,08,14,04,26,16.50
2016,08,14,04,27,16.50
2016,08,14,04,28,16.40
2016,08,14,04,29,16.40
2016,08,14,04,30,16.40
2016,08,14,04,31,16.40
2016,08,14,04,32,16.40
2016,08,14,04,33,16.40
2016,08,14,04,34,16.40
2016,08,14,04,35,16.40
2016,08,14,04,36,16.40
2016,08,14,04,37,16.40
2016,08,14,04,38,16.40
2016,08,14,04,39,16.40
2016,08,14,04,40,16.40
2016,08,14,04,41,16.40
2016,08,14,04,42,16.40
2016,08,14,04,43,16.40
2016,08,14,04,44,16.40
2016,08,14,04,45,16.40
2016,08,14,04,46,16.40
2016,08,14,04,47,16.40
2016,08,14,04,48,16.40
2016,08,14,04,49,16.40
2016,08,14,04,50,16.40
2016,08,14,04,51,16.40
2016,08,14,04,52,16.40
2016,08,14,04,53,16.40
2016,08,14,04,54,16.40
2016,08,14,04,55,16.40
2016,08,14,04,56,16.40
2016,08,14,04,57,16.40
2016,08,14,04,58,16.40
2016,08,14,04,59,16.40
2016,08,14,05,00,16.40
2016,08,14,05,01,16.40
2016,08,14,05,02,16.40
2016,08,14,05,03,16.40
2016,08,14,05,04,16.40
2016,08,14,05,05,16.40
2016,08,14,05,06,16.40
2016,08,14,05,07,16.40
2016,08,14,05,08,16.40
2016,08,14,05,09,16.40
2016,08,14,05,10,16.40
2016,08,14,05,11,16.40
2016,08,14,05,12,16.40
2016,08,14,05,13,16.40
2016,08,14,05,14,16.40
2016,08,14,05,15,16.50
2016,08,14,05,16,16.50
2016,08,14,05,17,16.50
2016,08,14,05,18,16.50
2016,08,14,05,19,16.50
2016,08,14,05,20,16.60
2016,08,14,05,21,16.60
2016,08,14,05,22,16.60
2016,08,14,05,23,16.60
2016,08,14,05,24,16.60
2016,08,14,05,25,16.60
2016,08,14,05,26,16.50
2016,08,14,05,27,16.50
2016,08,14,05,28,16.50
2016,08,14,05,29,16.50
2016,08,14,05,30,16.50
2016,08,14,05,31,16.50
2016,08,14,05,32,16.50
2016,08,14,05,33,16.50
2016,08,14,05,34,16.50
2016,08,14,05,35,16.50
2016,08,14,05,36,16.40
2016,08,14,05,37,16.40
2016,08,14,05,38,16.40
2016,08,14,05,39,16.40
2016,08,14,05,40,16.40
2016,08,14,05,41,16.40
2016,08,14,05,42,16.40
2016,08,14,05,43,16.40
2016,08,14,05,44,16.30
2016,08,14,05,45,16.30
2016,08,14,05,46,16.30
2016,08,14,05,47,16.30
2016,08,14,05,48,16.30
2016,08,14,05,49,16.30
2016,08,14,05,50,16.30
2016,08,14,05,51,16.30
2016,08,14,05,52,16.30
2016,08,14,05,53,16.30
2016,08,14,05,54,16.20
2016,08,14,05,55,16.20
2016,08,14,05,56,16.20
2016,08,14,05,57,16.20
2016,08,14,05,58,16.20
2016,08,14,05,59,16.20
2016,08,14,06,00,16.20
2016,08,14,06,01,16.20
2016,08,14,06,02,16.20
2016,08,14,06,03,16.10
2016,08,14,06,04,16.10
2016,08,14,06,05,16.10
2016,08,14,06,06,16.10
2016,08,14,06,07,16.10
2016,08,14,06,08,16.10
2016,08,14,06,09,16.10
2016,08,14,06,10,16.10
2016,08,14,06,11,16.10
2016,08,14,06,12,16.10
2016,08,14,06,13,16.00
2016,08,14,06,14,16.00
2016,08,14,06,15,16.00
2016,08,14,06,16,16.00
2016,08,14,06,17,16.00
2016,08,14,06,18,16.00
2016,08,14,06,19,16.00
2016,08,14,06,20,15.90
2016,08,14,06,21,15.90
2016,08,14,06,22,15.90
2016,08,14,06,23,15.90
2016,08,14,06,24,15.90
2016,08,14,06,25,15.90
2016,08,14,06,26,15.90
2016,08,14,06,27,15.90
2016,08,14,06,28,15.90
2016,08,14,06,29,15.90
2016,08,14,06,30,15.90
2016,08,14,06,31,15.90
2016,08,14,06,32,15.80
2016,08,14,06,33,15.80
2016,08,14,06,34,15.80
2016,08,14,06,35,15.80
2016,08,14,06,36,15.80
2016,08,14,06,37,15.80
2016,08,14,06,38,15.80
2016,08,14,06,39,15.80
2016,08,14,06,40,15.80
2016,08,14,06,41,15.80
2016,08,14,06,42,15.80
2016,08,14,06,43,15.80
2016,08,14,06,44,15.80
2016,08,14,06,45,15.80
2016,08,14,06,46,15.80
2016,08,14,06,47,15.80
2016,08,14,06,48,15.80
2016,08,14,06,49,15.80
2016,08,14,06,50,15.80
2016,08,14,06,51,15.80
2016,08,14,06,52,15.80
2016,08,14,06,53,15.80
2016,08,14,06,54,15.80
2016,08,14,06,55,15.80
2016,08,14,06,56,15.80
2016,08,14,06,57,15.80
2016,08,14,06,58,15.80
2016,08,14,06,59,15.80
2016,08,14,07,00,15.80
2016,08,14,07,01,15.90
2016,08,14,07,02,15.90
2016,08,14,07,03,15.90
2016,08,14,07,04,15.90
2016,08,14,07,05,16.00
2016,08,14,07,06,16.00
2016,08,14,07,07,16.00
2016,08,14,07,08,16.00
2016,08,14,07,09,16.00
2016,08,14,07,10,16.10
2016,08,14,07,11,16.10
2016,08,14,07,12,16.10
2016,08,14,07,13,16.10
2016,08,14,07,14,16.10
2016,08,14,07,15,16.20
2016,08,14,07,16,16.20
2016,08,14,07,17,16.20
2016,08,14,07,18,16.30
2016,08,14,07,19,16.30
2016,08,14,07,20,16.40
2016,08,14,07,21,16.40
2016,08,14,07,22,16.40
2016,08,14,07,23,16.50
2016,08,14,07,24,16.60
2016,08,14,07,25,16.60
2016,08,14,07,26,16.70
2016,08,14,07,27,16.70
2016,08,14,07,28,16.70
2016,08,14,07,29,16.80
2016,08,14,07,30,16.80
2016,08,14,07,31,16.90
2016,08,14,07,32,16.90
2016,08,14,07,33,17.00
2016,08,14,07,34,17.00
2016,08,14,07,35,17.10
2016,08,14,07,36,17.20
2016,08,14,07,37,17.20
2016,08,14,07,38,17.30
2016,08,14,07,39,17.30
2016,08,14,07,40,17.30
2016,08,14,07,41,17.40
2016,08,14,07,42,17.40
2016,08,14,07,43,17.50
2016,08,14,07,44,17.50
2016,08,14,07,45,17.60
2016,08,14,07,46,17.60
2016,08,14,07,47,17.70
2016,08,14,07,48,17.80
2016,08,14,07,49,17.80
2016,08,14,07,50,17.80
2016,08,14,07,51,17.90
2016,08,14,07,52,17.90
2016,08,14,07,53,18.00
2016,08,14,07,54,18.00
2016,08,14,07,55,18.00
2016,08,14,07,56,18.10
2016,08,14,07,57,18.10
2016,08,14,07,58,18.10
2016,08,14,07,59,18.20
2016,08,14,08,00,18.20
2016,08,14,08,01,18.20
2016,08,14,08,02,18.30
2016,08,14,08,03,18.30
2016,08,14,08,04,18.30
2016,08,14,08,05,18.40
2016,08,14,08,06,18.40
2016,08,14,08,07,18.40
2016,08,14,08,08,18.50
2016,08,14,08,09,18.50
2016,08,14,08,10,18.50
2016,08,14,08,11,18.60
2016,08,14,08,12,18.60
2016,08,14,08,13,18.60
2016,08,14,08,14,18.70
2016,08,14,08,15,18.70
2016,08,14,08,16,18.70
2016,08,14,08,17,18.70
2016,08,14,08,18,18.80
2016,08,14,08,19,18.80
2016,08,14,08,20,18.80
2016,08,14,08,21,18.90
2016,08,14,08,22,18.90
2016,08,14,08,23,18.90
2016,08,14,08,24,18.90
2016,08,14,08,25,19.00
2016,08,14,08,26,19.00
2016,08,14,08,27,19.10
2016,08,14,08,28,19.10
2016,08,14,08,29,19.10
2016,08,14,08,30,19.10
2016,08,14,08,31,19.20
2016,08,14,08,32,19.20
2016,08,14,08,33,19.30
2016,08,14,08,34,19.30
2016,08,14,08,35,19.30
2016,08,14,08,36,19.30
2016,08,14,08,37,19.40
2016,08,14,08,38,19.40
2016,08,14,08,39,19.40
2016,08,14,08,40,19.40
2016,08,14,08,41,19.40
2016,08,14,08,42,19.50
2016,08,14,08,43,19.50
2016,08,14,08,44,19.50
2016,08,14,08,45,19.50
2016,08,14,08,46,19.50
2016,08,14,08,47,19.50
2016,08,14,08,48,19.50
2016,08,14,08,49,19.50
2016,08,14,08,50,19.60
2016,08,14,08,51,19.60
2016,08,14,08,52,19.60
2016,08,14,08,53,19.60
2016,08,14,08,54,19.60
2016,08,14,08,55,19.60
2016,08,14,08,56,19.70
2016,08,14,08,57,19.70
2016,08,14,08,58,19.80
2016,08,14,08,59,19.80
2016,08,14,09,00,19.80
2016,08,14,09,01,19.80
2016,08,14,09,02,19.90
2016,08,14,09,03,19.90
2016,08,14,09,04,19.90
2016,08,14,09,05,19.90
2016,08,14,09,06,19.80
2016,08,14,09,07,19.80
2016,08,14,09,08,19.90
2016,08,14,09,09,19.90
2016,08,14,09,10,19.90
2016,08,14,09,11,20.00
2016,08,14,09,12,20.00
2016,08,14,09,13,20.10
2016,08,14,09,14,20.10
2016,08,14,09,15,20.20
2016,08,14,09,16,20.20
2016,08,14,09,17,20.30
2016,08,14,09,18,20.30
2016,08,14,09,19,20.30
2016,08,14,09,20,20.40
2016,08,14,09,21,20.40
2016,08,14,09,22,20.50
2016,08,14,09,23,20.50
2016,08,14,09,24,20.60
2016,08,14,09,25,20.60
2016,08,14,09,26,20.60
2016,08,14,09,27,20.60
2016,08,14,09,28,20.70
2016,08,14,09,29,20.70
2016,08,14,09,30,20.70
2016,08,14,09,31,20.80
2016,08,14,09,32,20.80
2016,08,14,09,33,20.80
2016,08,14,09,34,20.80
2016,08,14,09,35,20.80
2016,08,14,09,36,20.80
2016,08,14,09,37,20.80
2016,08,14,09,38,20.80
2016,08,14,09,39,20.80
2016,08,14,09,40,20.80
2016,08,14,09,41,20.80
2016,08,14,09,42,20.80
2016,08,14,09,43,20.80
2016,08,14,09,44,20.90
2016,08,14,09,45,20.90
2016,08,14,09,46,21.00
2016,08,14,09,47,21.00
2016,08,14,09,48,21.10
2016,08,14,09,49,21.10
2016,08,14,09,50,21.20
2016,08,14,09,51,21.10
2016,08,14,09,52,21.10
2016,08,14,09,53,21.10
2016,08,14,09,54,21.10
2016,08,14,09,55,21.10
2016,08,14,09,56,21.10
2016,08,14,09,57,21.10
2016,08,14,09,58,21.10
2016,08,14,09,59,21.10
2016,08,14,10,00,21.20
2016,08,14,10,01,21.20
2016,08,14,10,02,21.30
2016,08,14,10,03,21.30
2016,08,14,10,04,21.30
2016,08,14,10,05,21.40
2016,08,14,10,06,21.50
2016,08,14,10,07,21.60
2016,08,14,10,08,21.70
2016,08,14,10,09,21.70
2016,08,14,10,10,21.70
2016,08,14,10,11,21.70
2016,08,14,10,12,21.80
2016,08,14,10,13,21.90
2016,08,14,10,14,21.90
2016,08,14,10,15,22.10
2016,08,14,10,16,22.10
2016,08,14,10,17,22.20
2016,08,14,10,18,22.30
2016,08,14,10,19,22.30
2016,08,14,10,20,22.40
2016,08,14,10,21,22.40
2016,08,14,10,22,22.50
2016,08,14,10,23,22.50
2016,08,14,10,24,22.50
2016,08,14,10,25,22.60
2016,08,14,10,26,22.60
2016,08,14,10,27,22.60
2016,08,14,10,28,22.50
2016,08,14,10,29,22.50
2016,08,14,10,30,22.50
2016,08,14,10,31,22.60
2016,08,14,10,32,22.60
2016,08,14,10,33,22.50
2016,08,14,10,34,22.60
2016,08,14,10,35,22.60
2016,08,14,10,36,22.60
2016,08,14,10,37,22.60
2016,08,14,10,38,22.60
2016,08,14,10,39,22.60
2016,08,14,10,40,22.60
2016,08,14,10,41,22.50
2016,08,14,10,42,22.50
2016,08,14,10,43,22.50
2016,08,14,10,44,22.40
2016,08,14,10,45,22.50
2016,08,14,10,46,22.50
2016,08,14,10,47,22.60
2016,08,14,10,48,22.60
2016,08,14,10,49,22.60
2016,08,14,10,50,22.70
2016,08,14,10,51,22.70
2016,08,14,10,52,22.80
2016,08,14,10,53,22.80
2016,08,14,10,54,22.80
2016,08,14,10,55,22.80
2016,08,14,10,56,22.80
2016,08,14,10,57,22.80
2016,08,14,10,58,22.80
2016,08,14,10,59,22.80
2016,08,14,11,00,22.80
2016,08,14,11,01,22.70
2016,08,14,11,02,22.80
2016,08,14,11,03,22.80
2016,08,14,11,04,22.80
2016,08,14,11,05,22.90
2016,08,14,11,06,22.90
2016,08,14,11,07,23.00
2016,08,14,11,08,23.10
2016,08,14,11,09,23.10
2016,08,14,11,10,23.30
2016,08,14,11,11,23.30
2016,08,14,11,12,23.30
2016,08,14,11,13,23.30
2016,08,14,11,14,23.30
2016,08,14,11,15,23.20
2016,08,14,11,16,23.20
2016,08,14,11,17,23.20
2016,08,14,11,18,23.20
2016,08,14,11,19,23.30
2016,08,14,11,20,23.30
2016,08,14,11,21,23.30
2016,08,14,11,22,23.30
2016,08,14,11,23,23.40
2016,08,14,11,24,23.40
2016,08,14,11,25,23.40
2016,08,14,11,26,23.40
2016,08,14,11,27,23.30
2016,08,14,11,28,23.30
2016,08,14,11,29,23.30
2016,08,14,11,30,23.40
2016,08,14,11,31,23.40
2016,08,14,11,32,23.40
2016,08,14,11,33,23.40
2016,08,14,11,34,23.40
2016,08,14,11,35,23.50
2016,08,14,11,36,23.60
2016,08,14,11,37,23.70
2016,08,14,11,38,23.70
2016,08,14,11,39,23.90
2016,08,14,11,40,24.00
2016,08,14,11,41,24.10
2016,08,14,11,42,24.10
2016,08,14,11,43,24.30
2016,08,14,11,44,24.30
2016,08,14,11,45,24.40
2016,08,14,11,46,24.40
2016,08,14,11,47,24.50
2016,08,14,11,48,24.50
2016,08,14,11,49,24.50
2016,08,14,11,50,24.40
2016,08,14,11,51,24.40
2016,08,14,11,52,24.30
2016,08,14,11,53,24.30
2016,08,14,11,54,24.20
2016,08,14,11,55,24.20
2016,08,14,11,56,24.20
2016,08,14,11,57,24.30
2016,08,14,11,58,24.30
2016,08,14,11,59,24.30
2016,08,14,12,00,24.30
2016,08,14,12,01,24.30
2016,08,14,12,02,24.30
2016,08,14,12,03,24.30
2016,08,14,12,04,24.30
2016,08,14,12,05,24.30
2016,08,14,12,06,24.30
2016,08,14,12,07,24.20
2016,08,14,12,08,24.20
2016,08,14,12,09,24.20
2016,08,14,12,10,24.20
2016,08,14,12,11,24.10
2016,08,14,12,12,24.10
2016,08,14,12,13,24.10
2016,08,14,12,14,24.20
2016,08,14,12,15,24.10
2016,08,14,12,16,24.10
2016,08,14,12,17,24.10
2016,08,14,12,18,24.10
2016,08,14,12,19,24.10
2016,08,14,12,20,24.10
2016,08,14,12,21,24.20
2016,08,14,12,22,24.20
2016,08,14,12,23,24.20
2016,08,14,12,24,24.20
2016,08,14,12,25,24.20
2016,08,14,12,26,24.20
2016,08,14,12,27,24.20
2016,08,14,12,28,24.20
2016,08,14,12,29,24.20
2016,08,14,12,30,24.20
2016,08,14,12,31,24.20
2016,08,14,12,32,24.20
2016,08,14,12,33,24.20
2016,08,14,12,34,24.20
2016,08,14,12,35,24.20
2016,08,14,12,36,24.20
2016,08,14,12,37,24.20
2016,08,14,12,38,24.20
2016,08,14,12,39,24.20
2016,08,14,12,40,24.30
2016,08,14,12,41,24.30
2016,08,14,12,42,24.40
2016,08,14,12,43,24.50
2016,08,14,12,44,24.60
2016,08,14,12,45,24.70
2016,08,14,12,46,24.70
2016,08,14,12,47,24.80
2016,08,14,12,48,24.80
2016,08,14,12,49,24.80
2016,08,14,12,50,24.80
2016,08,14,12,51,24.80
2016,08,14,12,52,24.80
2016,08,14,12,53,24.80
2016,08,14,12,54,24.80
2016,08,14,12,55,24.80
2016,08,14,12,56,24.80
2016,08,14,12,57,24.80
2016,08,14,12,58,24.80
2016,08,14,12,59,24.80
2016,08,14,13,00,24.80
2016,08,14,13,01,24.80
2016,08,14,13,02,24.80
2016,08,14,13,03,24.90
2016,08,14,13,04,24.90
2016,08,14,13,05,24.90
2016,08,14,13,06,25.00
2016,08,14,13,07,25.00
2016,08,14,13,08,25.10
2016,08,14,13,09,25.10
2016,08,14,13,10,25.10
2016,08,14,13,11,25.00
2016,08,14,13,12,25.00
2016,08,14,13,13,25.00
2016,08,14,13,14,24.90
2016,08,14,13,15,24.90
2016,08,14,13,16,24.90
2016,08,14,13,17,24.90
2016,08,14,13,18,25.00
2016,08,14,13,19,25.00
2016,08,14,13,20,25.00
2016,08,14,13,21,24.90
2016,08,14,13,22,24.90
2016,08,14,13,23,24.80
2016,08,14,13,24,24.90
2016,08,14,13,25,24.90
2016,08,14,13,26,24.90
2016,08,14,13,27,24.90
2016,08,14,13,28,24.90
2016,08,14,13,29,24.90
2016,08,14,13,30,24.90
2016,08,14,13,31,24.90
2016,08,14,13,32,24.90
2016,08,14,13,33,24.90
2016,08,14,13,34,25.00
2016,08,14,13,35,25.10
2016,08,14,13,36,25.10
2016,08,14,13,37,25.20
2016,08,14,13,38,25.20
2016,08,14,13,39,25.10
2016,08,14,13,40,25.10
2016,08,14,13,41,25.20
2016,08,14,13,42,25.20
2016,08,14,13,43,25.20
2016,08,14,13,44,25.20
2016,08,14,13,45,25.20
2016,08,14,13,46,25.20
2016,08,14,13,47,25.30
2016,08,14,13,48,25.30
2016,08,14,13,49,25.30
2016,08,14,13,50,25.40
2016,08,14,13,51,25.40
2016,08,14,13,52,25.40
2016,08,14,13,53,25.40
2016,08,14,13,54,25.30
2016,08,14,13,55,25.30
2016,08,14,13,56,25.30
2016,08,14,13,57,25.30
2016,08,14,13,58,25.30
2016,08,14,13,59,25.30
2016,08,14,14,00,25.30
2016,08,14,14,01,25.30
2016,08,14,14,02,25.20
2016,08,14,14,03,25.20
2016,08,14,14,04,25.20
2016,08,14,14,05,25.30
2016,08,14,14,06,25.30
2016,08,14,14,07,25.30
2016,08,14,14,08,25.30
2016,08,14,14,09,25.40
2016,08,14,14,10,25.40
2016,08,14,14,11,25.40
2016,08,14,14,12,25.40
2016,08,14,14,13,25.50
2016,08,14,14,14,25.50
2016,08,14,14,15,25.50
2016,08,14,14,16,25.40
2016,08,14,14,17,25.40
2016,08,14,14,18,25.40
2016,08,14,14,19,25.40
2016,08,14,14,20,25.50
2016,08,14,14,21,25.40
2016,08,14,14,22,25.50
2016,08,14,14,23,25.50
2016,08,14,14,24,25.50
2016,08,14,14,25,25.60
2016,08,14,14,26,25.60
2016,08,14,14,27,25.60
2016,08,14,14,28,25.60
2016,08,14,14,29,25.60
2016,08,14,14,30,25.60
2016,08,14,14,31,25.60
2016,08,14,14,32,25.60
2016,08,14,14,33,25.50
2016,08,14,14,34,25.40
2016,08,14,14,35,25.40
2016,08,14,14,36,25.30
2016,08,14,14,37,25.30
2016,08,14,14,38,25.30
2016,08,14,14,39,25.20
2016,08,14,14,40,25.20
2016,08,14,14,41,25.20
2016,08,14,14,42,25.20
2016,08,14,14,43,25.20
2016,08,14,14,44,25.20
2016,08,14,14,45,25.20
2016,08,14,14,46,25.20
2016,08,14,14,47,25.20
2016,08,14,14,48,25.20
2016,08,14,14,49,25.20
2016,08,14,14,50,25.20
2016,08,14,14,51,25.20
2016,08,14,14,52,25.20
2016,08,14,14,53,25.20
2016,08,14,14,54,25.20
2016,08,14,14,55,25.20
2016,08,14,14,56,25.20
2016,08,14,14,57,25.20
2016,08,14,14,58,25.20
2016,08,14,14,59,25.20
2016,08,14,15,00,25.20
2016,08,14,15,01,25.20
2016,08,14,15,02,25.10
2016,08,14,15,03,25.10
2016,08,14,15,04,25.10
2016,08,14,15,05,25.10
2016,08,14,15,06,25.10
2016,08,14,15,07,25.10
2016,08,14,15,08,25.10
2016,08,14,15,09,25.10
2016,08,14,15,10,25.10
2016,08,14,15,11,25.20
2016,08,14,15,12,25.20
2016,08,14,15,13,25.30
2016,08,14,15,14,25.30
2016,08,14,15,15,25.30
2016,08,14,15,16,25.30
2016,08,14,15,17,25.30
2016,08,14,15,18,25.30
2016,08,14,15,19,25.40
2016,08,14,15,20,25.40
2016,08,14,15,21,25.40
2016,08,14,15,22,25.50
2016,08,14,15,23,25.50
2016,08,14,15,24,25.60
2016,08,14,15,25,25.60
2016,08,14,15,26,25.70
2016,08,14,15,27,25.70
2016,08,14,15,28,25.70
2016,08,14,15,29,25.70
2016,08,14,15,30,25.80
2016,08,14,15,31,25.80
2016,08,14,15,32,25.80
2016,08,14,15,33,25.80
2016,08,14,15,34,25.80
2016,08,14,15,35,25.80
2016,08,14,15,36,25.80
2016,08,14,15,37,25.80
2016,08,14,15,38,25.80
2016,08,14,15,39,25.80
2016,08,14,15,40,25.80
2016,08,14,15,41,25.80
2016,08,14,15,42,25.80
2016,08,14,15,43,25.80
2016,08,14,15,44,25.80
2016,08,14,15,45,25.80
2016,08,14,15,46,25.80
2016,08,14,15,47,25.80
2016,08,14,15,48,25.70
2016,08,14,15,49,25.70
2016,08,14,15,50,25.70
2016,08,14,15,51,25.70
2016,08,14,15,52,25.70
2016,08,14,15,53,25.70
2016,08,14,15,54,25.70
2016,08,14,15,55,25.70
2016,08,14,15,56,25.70
2016,08,14,15,57,25.80
2016,08,14,15,58,25.80
2016,08,14,15,59,25.80
2016,08,14,16,00,25.80
2016,08,14,16,01,25.80
2016,08,14,16,02,25.80
2016,08,14,16,03,25.80
2016,08,14,16,04,25.80
2016,08,14,16,05,25.80
2016,08,14,16,06,25.80
2016,08,14,16,07,25.80
2016,08,14,16,08,25.80
2016,08,14,16,09,25.80
2016,08,14,16,10,25.80
2016,08,14,16,11,25.90
2016,08,14,16,12,25.90
2016,08,14,16,13,25.90
2016,08,14,16,14,25.90
2016,08,14,16,15,25.90
2016,08,14,16,16,25.90
2016,08,14,16,17,26.00
2016,08,14,16,18,26.00
2016,08,14,16,19,26.00
2016,08,14,16,20,25.90
2016,08,14,16,21,25.90
2016,08,14,16,22,25.80
2016,08,14,16,23,25.80
2016,08,14,16,24,25.70
2016,08,14,16,25,25.70
2016,08,14,16,26,25.70
2016,08,14,16,27,25.80
2016,08,14,16,28,25.80
2016,08,14,16,29,25.80
2016,08,14,16,30,25.80
2016,08,14,16,31,25.80
2016,08,14,16,32,25.80
2016,08,14,16,33,25.80
2016,08,14,16,34,25.80
2016,08,14,16,35,25.80
2016,08,14,16,36,25.80
2016,08,14,16,37,25.70
2016,08,14,16,38,25.70
2016,08,14,16,39,25.70
2016,08,14,16,40,25.70
2016,08,14,16,41,25.60
2016,08,14,16,42,25.60
2016,08,14,16,43,25.50
2016,08,14,16,44,25.40
2016,08,14,16,45,25.40
2016,08,14,16,46,25.30
2016,08,14,16,47,25.30
2016,08,14,16,48,25.30
2016,08,14,16,49,25.30
2016,08,14,16,50,25.30
2016,08,14,16,51,25.30
2016,08,14,16,52,25.30
2016,08,14,16,53,25.40
2016,08,14,16,54,25.40
2016,08,14,16,55,25.40
2016,08,14,16,56,25.50
2016,08,14,16,57,25.50
2016,08,14,16,58,25.60
2016,08,14,16,59,25.60
2016,08,14,17,00,25.60
2016,08,14,17,01,25.60
2016,08,14,17,02,25.60
2016,08,14,17,03,25.60
2016,08,14,17,04,25.60
2016,08,14,17,05,25.60
2016,08,14,17,06,25.60
2016,08,14,17,07,25.60
2016,08,14,17,08,25.60
2016,08,14,17,09,25.60
2016,08,14,17,10,25.60
2016,08,14,17,11,25.60
2016,08,14,17,12,25.60
2016,08,14,17,13,25.60
2016,08,14,17,14,25.60
2016,08,14,17,15,25.60
2016,08,14,17,16,25.60
2016,08,14,17,17,25.60
2016,08,14,17,18,25.60
2016,08,14,17,19,25.50